Regional Weather Roundup
Issued by NWS Nashville, TN

Home | Current Version | Previous Version | Text Only | Print | Product List | Glossary On
Versions: 1 2 3 4 5 6 7 8 9 10 11 12 13 14 15 16 17 18 19 20 21 22 23 24 25 26 27 28 29 30 31 32 33 34 35 36 37 38 39 40 41 42 43 44 45 46 47 48 49 50
000
ASUS44 KOHX 211915
RWROHX
MIDDLE TENNESSEE HOURLY WEATHER ROUNDUP
NATIONAL WEATHER SERVICE NASHVILLE TN
100 PM CST SUN DEC 21 2014

NOTE: "FAIR" INDICATES FEW OR NO CLOUDS BELOW 12,000 FEET WITH
NO SIGNIFICANT WEATHER AND/OR OBSTRUCTIONS TO VISIBILITY.

* THESE REPORTS ARE NOT UNDER NWS QUALITY CONTROL AND MAY NOT
  REPORT WEATHER SUCH AS PRECIPITATION AND FOG.


TNZ005>011-023>034-057-059-062>066-078-080-212000
...NORTHERN MIDDLE TENNESSEE...

CITY           SKY/WX    TMP DP  RH WIND       PRES   REMARKS
CLARKSVILLE    SUNNY     48  31  51 E7        30.14F
CROSSVILLE     MOSUNNY   49  33  54 VRB7      30.12F
GALLATIN         N/A     50  31  48 VRB6      30.15F
DICKSON        SUNNY     48  28  46 E6        30.11F
LEBANON        SUNNY     50  30  46 VRB7      30.12F
LIVINGSTON     SUNNY     49  31  50 SW6       30.13F
NASHVILLE      MOSUNNY   52  31  44 E6        30.13F
WEST NASHVILLE   N/A     48  28  46 E5        30.13F
PORTLAND       SUNNY     48  28  46 SE5       30.12F
SMYRNA         SUNNY     54  33  44 CALM      30.13F
SPARTA         MOSUNNY   54  36  50 SW7       30.11F
$$
TNZ056-058-060-061-075>077-079-093>097-212000
...SOUTHERN MIDDLE TENNESSEE...

CITY           SKY/WX    TMP DP  RH WIND       PRES   REMARKS
COLUMBIA       SUNNY     52  39  62 VRB3      30.09F
LEWISBURG      MOSUNNY   50  36  58 CALM      30.12F
MCMINNVILLE    PTSUNNY   54  37  54 CALM      30.11F
MURFREESBORO   SUNNY     53  35  50 S3        30.12F
SHELBYVILLE    PTSUNNY   54  39  58 CALM      30.12F
TULLAHOMA      PTSUNNY   50  37  62 S6        30.11F
WINCHESTER     CLOUDY    52  37  58 SE5       30.12F
$$


...KEY TO REMARKS...
VSB - VISIBILITY IN MILES
WCI - WIND CHILL INDEX
HX  - HEAT INDEX



USA.gov is the U.S. government's official web portal to all federal, state and local government web resources and services.